TimeEST,TemperatureF,Dew PointF,Humidity,Sea Level PressureIn,VisibilityMPH,Wind Direction,Wind SpeedMPH,Gust SpeedMPH,PrecipitationIn,Events,Conditions,WindDirDegrees,DateUTC
12:15 AM,33.8,21.2,60,30.19,10.0,NW,5.8,-,N/A,,Overcast,310,2012-11-30 05:15:00
12:35 AM,33.8,19.4,56,30.20,10.0,WNW,3.5,-,N/A,,Mostly Cloudy,300,2012-11-30 05:35:00
12:55 AM,33.8,21.2,60,30.22,6.0,West,6.9,-,N/A,,Overcast,270,2012-11-30 05:55:00
1:15 AM,33.8,17.6,52,30.22,10.0,West,8.1,-,N/A,,Overcast,260,2012-11-30 06:15:00
1:35 AM,32.0,12.2,44,30.23,10.0,WSW,10.4,-,N/A,,Overcast,250,2012-11-30 06:35:00
1:55 AM,32.0,14.0,48,30.24,10.0,West,8.1,-,N/A,,Overcast,280,2012-11-30 06:55:00
2:15 AM,32.0,17.6,55,30.25,10.0,WNW,3.5,-,N/A,,Overcast,290,2012-11-30 07:15:00
2:35 AM,30.2,19.4,64,30.26,10.0,NW,5.8,-,N/A,,Overcast,310,2012-11-30 07:35:00
2:55 AM,30.2,19.4,64,30.27,10.0,West,9.2,-,N/A,,Overcast,280,2012-11-30 07:55:00
3:15 AM,30.2,17.6,60,30.27,10.0,West,10.4,16.1,N/A,,Overcast,280,2012-11-30 08:15:00
3:35 AM,30.2,17.6,60,30.28,10.0,WNW,8.1,-,N/A,,Overcast,290,2012-11-30 08:35:00
3:55 AM,30.2,15.8,55,30.30,10.0,WNW,8.1,-,N/A,,Overcast,300,2012-11-30 08:55:00
4:15 AM,30.2,12.2,47,30.31,10.0,NW,5.8,-,N/A,,Overcast,310,2012-11-30 09:15:00
4:35 AM,28.4,8.6,43,30.32,10.0,NW,5.8,-,N/A,,Overcast,310,2012-11-30 09:35:00
4:56 AM,28.4,8.6,43,30.33,10.0,NW,11.5,16.1,N/A,,Mostly Cloudy,310,2012-11-30 09:56:00
5:15 AM,26.6,8.6,47,30.35,10.0,North,6.9,-,N/A,,Partly Cloudy,360,2012-11-30 10:15:00
5:35 AM,24.8,12.2,59,30.37,10.0,NNE,8.1,-,N/A,,Clear,30,2012-11-30 10:35:00
5:55 AM,24.8,10.4,54,30.38,10.0,North,12.7,16.1,N/A,,Clear,360,2012-11-30 10:55:00
6:15 AM,24.8,5.0,43,30.39,10.0,North,9.2,-,N/A,,Clear,360,2012-11-30 11:15:00
6:35 AM,24.8,6.8,46,30.40,10.0,North,9.2,-,N/A,,Clear,360,2012-11-30 11:35:00
6:55 AM,23.0,6.8,50,30.42,10.0,North,8.1,-,N/A,,Clear,360,2012-11-30 11:55:00
7:15 AM,21.2,6.8,54,30.42,10.0,North,8.1,-,N/A,,Clear,360,2012-11-30 12:15:00
7:35 AM,21.2,8.6,58,30.43,10.0,North,9.2,-,N/A,,Clear,360,2012-11-30 12:35:00
7:55 AM,21.2,8.6,58,30.44,10.0,North,6.9,-,N/A,,Clear,10,2012-11-30 12:55:00
8:35 AM,23.0,5.0,46,30.46,10.0,NNW,5.8,-,N/A,,Partly Cloudy,330,2012-11-30 13:35:00
8:55 AM,23.0,5.0,46,30.47,10.0,NNW,5.8,-,N/A,,Clear,340,2012-11-30 13:55:00
9:15 AM,24.8,1.4,36,30.47,10.0,NNW,10.4,-,N/A,,Scattered Clouds,340,2012-11-30 14:15:00
9:35 AM,24.8,3.2,40,30.47,10.0,NNW,13.8,-,N/A,,Partly Cloudy,340,2012-11-30 14:35:00
9:55 AM,24.8,3.2,40,30.48,10.0,NNW,8.1,-,N/A,,Partly Cloudy,340,2012-11-30 14:55:00
10:15 AM,24.8,1.4,36,30.48,10.0,NNW,8.1,-,N/A,,Clear,340,2012-11-30 15:15:00
10:35 AM,24.8,3.2,40,30.48,10.0,North,9.2,-,N/A,,Clear,10,2012-11-30 15:35:00
10:55 AM,26.6,1.4,34,30.47,10.0,North,10.4,-,N/A,,Clear,10,2012-11-30 15:55:00
11:15 AM,26.6,-0.4,31,30.47,10.0,NNE,10.4,-,N/A,,Partly Cloudy,20,2012-11-30 16:15:00
11:35 AM,26.6,-0.4,31,30.46,10.0,North,9.2,-,N/A,,Clear,10,2012-11-30 16:35:00
11:55 AM,26.6,-0.4,31,30.46,10.0,North,10.4,-,N/A,,Clear,360,2012-11-30 16:55:00
12:15 PM,26.6,-2.2,29,30.47,10.0,North,9.2,-,N/A,,Clear,10,2012-11-30 17:15:00
12:35 PM,26.6,-2.2,29,30.47,10.0,NNE,8.1,-,N/A,,Clear,20,2012-11-30 17:35:00
12:55 PM,28.4,-0.4,29,30.46,10.0,North,8.1,-,N/A,,Clear,360,2012-11-30 17:55:00
1:15 PM,28.4,-2.2,27,30.46,10.0,North,8.1,-,N/A,,Clear,10,2012-11-30 18:15:00
1:35 PM,28.4,-2.2,27,30.46,10.0,NNE,5.8,-,N/A,,Clear,30,2012-11-30 18:35:00
1:55 PM,28.4,-2.2,27,30.46,10.0,North,6.9,-,N/A,,Clear,360,2012-11-30 18:55:00
2:15 PM,26.6,-2.2,29,30.46,10.0,North,6.9,-,N/A,,Clear,360,2012-11-30 19:15:00
2:35 PM,26.6,-4.0,26,30.46,10.0,North,8.1,-,N/A,,Clear,10,2012-11-30 19:35:00
2:55 PM,28.4,-2.2,27,30.47,10.0,NNE,6.9,-,N/A,,Clear,20,2012-11-30 19:55:00
3:15 PM,26.6,-4.0,26,30.48,10.0,NE,5.8,-,N/A,,Clear,40,2012-11-30 20:15:00
3:35 PM,26.6,-2.2,29,30.48,10.0,NE,5.8,-,N/A,,Partly Cloudy,50,2012-11-30 20:35:00
3:55 PM,26.6,-0.4,31,30.49,10.0,ENE,6.9,-,N/A,,Clear,70,2012-11-30 20:55:00
4:15 PM,24.8,-2.2,31,30.50,10.0,ENE,6.9,-,N/A,,Scattered Clouds,70,2012-11-30 21:15:00
4:55 PM,24.8,-0.4,34,30.51,10.0,Calm,Calm,-,N/A,,Clear,0,2012-11-30 21:55:00
5:15 PM,23.0,-0.4,36,30.51,10.0,ENE,3.5,-,N/A,,Clear,70,2012-11-30 22:15:00
5:35 PM,21.2,-0.4,39,30.52,10.0,Calm,Calm,-,N/A,,Clear,0,2012-11-30 22:35:00
5:55 PM,21.2,3.2,46,30.53,10.0,Calm,Calm,-,N/A,,Clear,0,2012-11-30 22:55:00
6:15 PM,19.4,3.2,49,30.53,10.0,Calm,Calm,-,N/A,,Clear,0,2012-11-30 23:15:00
6:35 PM,17.6,6.8,63,30.54,10.0,Calm,Calm,-,N/A,,Clear,0,2012-11-30 23:35:00
6:55 PM,17.6,5.0,58,30.54,10.0,NNE,5.8,-,N/A,,Clear,20,2012-11-30 23:55:00
7:15 PM,19.4,5.0,54,30.54,10.0,North,4.6,-,N/A,,Clear,360,2012-12-01 00:15:00
7:35 PM,17.6,6.8,63,30.54,10.0,Calm,Calm,-,N/A,,Mostly Cloudy,0,2012-12-01 00:35:00
8:15 PM,21.2,6.8,54,30.56,10.0,NNE,5.8,-,N/A,,Overcast,20,2012-12-01 01:15:00
8:35 PM,23.0,1.4,39,30.56,10.0,NNE,4.6,-,N/A,,Overcast,30,2012-12-01 01:35:00
8:55 PM,23.0,1.4,39,30.56,10.0,NNE,5.8,-,N/A,,Overcast,20,2012-12-01 01:55:00
9:15 PM,23.0,1.4,39,30.56,10.0,NNE,5.8,-,N/A,,Overcast,20,2012-12-01 02:15:00
9:35 PM,23.0,1.4,39,30.56,10.0,NNE,5.8,-,N/A,,Overcast,30,2012-12-01 02:35:00
9:55 PM,23.0,-0.4,36,30.56,10.0,NNE,5.8,-,N/A,,Overcast,20,2012-12-01 02:55:00
10:15 PM,24.8,1.4,36,30.56,10.0,North,4.6,-,N/A,,Overcast,360,2012-12-01 03:15:00
10:35 PM,23.0,1.4,39,30.56,10.0,North,4.6,-,N/A,,Overcast,360,2012-12-01 03:35:00
10:55 PM,23.0,1.4,39,30.57,10.0,North,4.6,-,N/A,,Overcast,360,2012-12-01 03:55:00
11:15 PM,23.0,3.2,43,30.57,10.0,North,5.8,-,N/A,,Overcast,360,2012-12-01 04:15:00
11:35 PM,23.0,1.4,39,30.58,10.0,North,5.8,-,N/A,,Overcast,360,2012-12-01 04:35:00